SCP
-0 -0 -0 0 -0 -0 -0 -0 -0 -0 -0 0 0 0 0 0 0 0 0 0 0 0 0 0 0 0 0 0 0 0 0 0 0 0 0 0 0 0 0 0 0 0 0 0 0 0 0 0 0 0 0 0 0 0
-0 -0 -0 -0 0 0 0 -0 0 0 -0 0 0 0 0 0 0 0 0 0 0 0 0 0 0 0 0 0 0 0 0 0 0 0 0 0 0 0 0 0 0 0 0 0 0 0 0 0 0 0 0 0 0 0
-0 -0 -0 -0 0 -0 -0 0 0 0 0 0 0 -0 0 0 0 0 0 0 0 0 0 0 0 0 0 0 0 0 0 0 0 0 0 0 0 0 0 0 0 0 0 0 0 0 0 0 0 0 0 0 0 0
-0 -0 -0 0 0 0 0 0 0 0 0 0 0 -0 0 0 0 0 0 0 0 0 0 0 0 0 0 0 0 -0 0 0 0 0 0 0 0 0 0 0 0 0 0 0 0 0 0 0 0 0 0 0 0 0
-0 -0 0 0 0 0 0 0 0 0 0 0 0 0 0 0 0 0 0 0 0 0 0 0 0 0 0 0 0 0 0 0 0 0 0 0 0 0 0 0 0 0 0 0 0 0 0 0 0 0 0 0 0 0
0 0 0 0 0 0 0 0 0 0 0 0 0 0 0 0 0 0 0 0 0 0 0 0 0 0 0 0 0 0 0 0 0 0 0 0 0 0 0 0 0 0 0 0 0 0 0 0 0 0 0 0 0 0
0 0 0 0 0 0 0 0 0 0 0 0 0 0 0 0 0 0 0 0 0 0 0 0 0 0 0 0 0 0 0 0 0 0 0 0 0 0 0 0 0 0 0 0 0 0 0 0 0 0 0 0 0 0
0 0 0 0 -0 -0 -0 0 0 0 0 0 0 0 0 0 0 0 0 0 0 0 0 0 0 0 0 0 0 0 0 0 0 0 0 0 0 0 0 0 0 0 0 0 0 0 0 0 0 0 0 0 0 0
0 0 0 -0 -0 -0 -0 -0 -0 -0 0 0 0 0 0 0 0 0 0 0 0 0 0 0 0 0 0 0 0 0 0 0 0 0 0 0 0 0 0 0 0 0 0 0 0 0 0 0 0 0 0 0 0 0
0 0 0 0 0 0 0 0 0 0 0 0 0 0 0 0 0 0 0 0 0 0 0 0 0 0 0 0 0 0 0 0 0 0 0 0 0 0 0 0 0 0 0 0 0 0 0 0 0 0 0 0 0 0
0 0 0 0 0 0 0 0 0 0 0 0 0 0 0 0 0 0 0 0 0 0 0 0 0 0 0 0 0 0 0 0 0 0 0 0 0 0 0 0 0 0 0 0 0 0 0 0 0 0 0 0 0 0
0 0 0 0 0 0 0 0 0 0 0 0 0 0 0 0 0 0 0 0 0 0 0 0 0 0 0 0 0 0 0 0 0 0 0 0 0 0 0 0 0 0 0 0 0 0 0 0 0 0 0 0 0 0
0 0 0 0 0 0 0 0 0 0 0 0 0 0 0 0 0 0 0 0 0 0 0 0 0 0 0 0 0 0 0 0 0 0 0 0 0 0 0 0 0 0 0 0 0 0 0 0 0 0 0 0 0 0
0 0 0 0 0 0 0 0 0 0 0 0 0 0 0 0 0 0 0 0 0 0 0 0 0 0 0 0 0 0 0 0 0 0 0 0 0 0 0 0 0 0 0 0 0 0 0 0 0 0 0 0 0 0
0 0 0 0 0 0 0 0 0 0 0 0 0 0 0 0 0 0 0 0 0 0 0 0 0 0 0 0 0 0 0 0 0 0 0 0 0 0 0 0 0 0 0 0 0 0 0 0 0 0 0 0 0 0
0 0 0 0 0 0 0 0 0 0 0 0 0 0 0 0 0 0 0 0 0 0 0 0 0 0 0 0 0 0 0 0 0 0 0 0 0 0 0 0 0 0 0 0 0 0 0 0 0 0 0 0 0 0
0 0 0 0 0 0 0 0 0 0 0 0 0 0 0 0 0 0 0 0 0 0 0 0 0 0 0 0 0 0 0 0 0 0 0 0 0 0 0 0 0 0 0 0 0 0 0 0 0 0 0 0 0 0
0 0 0 0 0 0 0 0 0 0 0 0 0 0 0 0 0 0 0 0 0 0 0 0 0 0 0 0 0 0 0 0 0 0 0 0 0 0 0 0 0 0 0 0 0 0 0 0 0 0 0 0 0 0
0 0 0 0 0 0 0 0 0 0 0 0 0 0 0 0 0 0 0 0 0 0 0 0 0 0 0 0 0 0 0 0 0 0 0 0 0 0 0 0 0 0 0 0 0 0 0 0 0 0 0 0 0 0
0 0 0 0 0 0 0 0 0 0 0 0 0 0 0 0 0 0 0 0 0 0 0 0 0 0 0 0 0 0 0 0 0 0 0 0 0 0 0 0 0 0 0 0 0 0 0 0 0 0 0 0 0 0
0 0 0 0 0 0 0 0 0 0 0 0 0 0 0 0 0 0 0 0 0 0 0 0 0 0 0 0 0 0 0 0 0 0 0 0 0 0 0 0 0 0 0 0 0 0 0 0 0 0 0 0 0 0
0 0 0 0 0 0 0 0 0 0 0 0 0 0 0 0 0 0 0 0 0 0 0 0 0 0 0 0 0 0 0 0 0 0 0 0 0 0 0 0 0 0 0 0 0 0 0 0 0 0 0 0 0 0
0 0 0 0 0 0 0 0 0 0 0 0 0 0 0 0 0 0 0 0 0 0 0 0 0 0 0 0 0 0 0 0 0 0 0 0 0 0 0 0 0 0 0 0 0 0 0 0 0 0 0 0 0 0
0 0 0 0 0 0 0 0 0 0 0 0 0 0 0 0 0 0 0 0 0 0 0 0 0 0 0 0 0 0 0 0 0 0 0 0 0 0 0 0 0 0 0 0 0 0 0 0 0 0 0 0 0 0
0 0 0 0 0 0 0 0 0 0 0 0 0 0 0 0 0 0 0 0 0 0 0 0 0 0 0 0 0 0 0 0 0 0 0 0 0 0 0 0 0 0 0 0 0 0 0 0 0 0 0 0 0 0
0 0 0 0 0 0 0 0 0 0 0 0 0 0 0 0 0 0 0 0 0 0 0 0 0 0 0 0 0 0 0 0 0 0 0 0 0 0 0 0 0 0 0 0 0 0 0 0 0 0 0 0 0 0
0 0 0 0 0 0 0 0 0 0 0 0 0 0 0 0 0 0 0 0 0 0 0 0 0 0 0 0 0 0 0 0 0 0 0 0 0 0 0 0 0 0 0 0 0 0 0 0 0 0 0 0 0 0
0 0 0 0 0 0 0 0 0 0 0 0 0 0 0 0 0 0 0 0 0 0 0 0 0 0 0 0 0 0 0 0 0 0 0 0 0 0 0 0 0 0 0 0 0 0 0 0 0 0 0 0 0 0
0 0 0 0 0 0 0 0 0 0 0 0 0 0 0 0 0 0 0 0 0 0 0 0 0 0 0 0 0 0 0 0 0 0 0 0 0 0 0 0 0 0 0 0 0 0 0 0 0 0 0 0 0 0
0 0 0 0 0 0 0 0 0 0 0 0 0 0 0 0 0 0 0 0 0 0 0 0 0 0 0 0 0 0 0 0 0 0 0 0 0 0 0 0 0 0 0 0 0 0 0 0 0 0 0 0 0 0
0 0 0 0 0 0 0 0 0 0 0 0 0 0 0 0 0 0 0 0 0 0 0 0 0 0 0 0 0 0 0 0 0 0 0 0 0 0 0 0 0 0 0 0 0 0 0 0 0 0 0 0 0 0
0 0 0 0 0 0 0 0 0 0 0 0 0 0 0 0 0 0 0 0 0 0 0 0 0 0 0 0 0 0 0 0 0 0 0 0 0 0 0 0 0 0 0 0 0 0 0 0 0 0 0 0 0 0
0 0 0 0 0 0 0 0 0 0 0 0 0 0 0 0 0 0 0 0 0 0 0 0 0 0 0 0 0 0 0 0 0 0 0 0 0 0 0 0 0 0 0 0 0 0 0 0 0 0 0 0 0 0
Wind_Speed_500mb
87 81 78 80 86 92 92 99 104 102 102 94 87 93 94 91 88 93 57 59 43 14 16 33 38 50 35 42 21 43 24 17 18 13 9 9 8 13 12 23 14 18 14 12 12 9 18 27 17 7 13 11 6 2
69 68 72 70 77 83 88 94 106 109 106 104 103 99 96 92 89 90 60 55 36 19 6 24 25 43 31 44 37 54 14 32 14 10 8 5 4 9 12 12 14 12 8 9 2 2 10 22 22 17 8 15 9 6
65 70 64 65 81 93 96 101 106 109 105 104 104 100 95 96 90 87 71 55 38 30 22 25 27 26 38 42 51 27 22 43 24 14 9 5 6 7 8 9 15 14 19 2 4 11 18 14 15 11 9 12 10 4
62 50 42 56 55 70 79 98 106 107 107 101 102 101 100 95 96 63 83 64 51 22 9 6 15 22 30 25 44 43 43 25 26 24 8 4 4 2 8 7 9 14 21 14 5 8 15 11 15 13 12 10 7 3
36 17 22 51 58 61 70 85 106 113 110 108 106 107 103 92 97 71 77 56 52 16 11 25 34 22 26 29 30 29 38 37 26 10 3 5 7 2 6 5 5 17 14 12 5 19 15 11 23 17 15 11 7 2
45 23 36 59 68 70 78 79 90 108 113 112 106 105 104 97 97 78 26 57 27 72 34 7 22 29 28 28 32 33 36 32 19 14 6 11 4 6 3 5 10 10 13 12 6 17 13 20 19 17 15 13 7 4
69 78 87 67 75 85 85 87 101 116 116 120 113 116 116 95 97 45 20 53 68 49 24 9 8 18 35 35 33 29 24 17 22 7 1 12 8 2 1 3 18 8 14 10 25 23 20 20 19 16 15 10 11 8
80 95 118 131 121 112 113 119 130 134 132 136 131 115 105 91 55 48 72 74 47 27 15 8 10 18 23 31 21 26 22 16 6 7 4 11 9 2 3 19 12 16 21 22 20 8 15 23 20 15 12 10 7 5
71 94 115 127 137 143 152 153 151 149 142 133 127 95 76 57 36 54 61 50 21 13 12 7 15 11 20 26 23 16 9 4 5 2 6 11 7 4 11 18 13 21 16 21 17 17 17 17 17 13 10 7 5 3
73 85 101 113 121 126 132 131 134 136 125 110 95 52 22 33 81 71 44 10 9 10 7 8 25 12 34 25 7 9 4 6 6 6 14 4 8 21 14 8 16 17 20 23 20 16 15 15 13 11 9 8 7 5
70 77 83 96 112 122 126 123 117 108 90 67 31 19 80 70 41 10 8 7 9 5 17 23 39 25 29 11 8 8 5 4 5 6 8 7 8 14 16 19 20 19 20 17 14 16 12 15 17 13 9 6 5 3
75 87 97 107 99 98 99 92 87 58 36 33 65 66 29 12 8 10 4 2 6 8 21 25 39 38 28 14 8 6 5 2 5 9 3 4 9 28 27 25 22 22 23 24 22 22 24 23 18 15 9 6 6 10
66 65 73 71 75 74 68 58 46 73 82 74 37 14 5 8 7 9 11 8 10 12 42 44 21 14 10 12 8 4 5 5 27 4 7 6 33 31 30 29 25 22 22 23 24 23 21 19 17 13 11 5 5 10
56 55 59 62 56 52 49 73 57 56 49 18 11 11 8 6 10 8 11 13 19 50 55 45 22 9 9 7 6 6 6 8 8 8 6 16 34 34 31 27 28 27 28 28 25 21 16 10 9 6 3 3 4 6
60 56 52 55 57 53 56 50 47 37 17 15 13 10 9 5 8 8 19 42 54 57 46 30 16 13 6 7 4 9 5 7 9 4 12 39 38 38 35 33 32 30 37 32 24 15 10 7 5 3 1 2 2 4
57 58 51 39 42 39 34 26 21 22 14 13 16 12 14 15 7 20 39 43 42 43 25 13 7 7 5 10 6 6 12 7 6 10 35 39 39 36 36 35 38 29 31 25 19 15 11 8 3 2 2 2 3 5
55 48 37 31 32 23 19 26 18 18 13 11 11 25 28 19 20 22 24 18 16 14 4 7 7 5 8 6 6 4 5 12 29 32 30 31 37 43 43 40 34 32 26 20 18 15 13 8 5 6 7 6 6 12
52 36 33 32 28 26 45 24 16 16 18 24 11 21 29 29 25 24 26 22 13 10 9 6 10 5 5 6 8 9 16 34 32 31 29 33 35 38 38 35 33 29 24 22 17 15 12 10 10 8 4 6 9 13
41 31 27 26 25 15 15 18 16 13 17 16 23 28 28 25 29 22 20 15 17 13 11 7 5 7 7 11 23 30 32 34 33 29 30 29 32 33 32 32 30 26 24 22 19 12 11 15 15 9 9 3 5 4
33 30 28 23 24 14 13 14 15 15 11 10 14 18 12 11 12 17 23 22 19 9 10 7 7 7 11 20 22 30 29 38 39 37 31 30 32 33 32 33 29 25 23 21 20 21 11 10 11 11 12 12 8 3
25 31 33 36 39 25 14 10 14 11 13 11 7 7 9 15 12 15 18 20 16 10 8 10 15 22 25 26 23 27 30 27 23 16 34 40 37 33 32 28 25 26 26 23 19 19 18 15 13 12 3 5 8 9
21 27 31 28 17 13 15 18 15 11 10 12 7 10 10 7 7 8 8 14 9 8 8 11 15 18 16 18 22 22 24 22 19 17 20 27 38 34 34 33 28 28 23 22 21 19 20 18 19 14 10 11 4 4
17 23 16 15 13 12 7 11 9 7 6 7 8 6 5 6 5 6 6 8 7 6 11 14 16 16 11 12 14 16 23 21 20 24 25 26 30 29 31 29 29 28 26 24 23 22 24 26 21 13 12 8 4 6
16 12 13 11 14 8 7 7 8 8 8 4 5 5 5 5 4 3 4 6 3 6 5 9 10 10 7 10 8 14 22 22 23 21 24 29 32 31 30 30 30 27 26 28 25 26 26 22 16 17 12 9 8 9
8 14 9 11 7 7 6 5 4 6 6 4 5 5 4 2 2 3 3 8 9 8 9 7 12 12 6 9 14 16 25 24 23 25 28 28 30 29 30 29 28 27 32 31 30 26 19 20 18 16 13 12 14 13
10 10 8 5 3 4 4 6 5 8 6 5 5 6 3 2 3 4 4 8 6 5 10 10 9 11 11 16 19 17 27 25 23 24 26 30 31 31 34 35 34 30 31 28 26 23 23 22 19 21 20 20 21 16
5 6 6 5 5 10 9 11 12 6 5 6 8 8 5 6 5 6 11 9 8 4 2 6 10 11 13 18 18 19 21 28 25 23 28 29 27 27 31 35 33 29 34 34 29 25 22 20 20 19 16 16 18 13
5 3 4 4 6 5 5 5 5 5 5 12 17 7 11 7 4 7 9 15 11 9 7 11 15 15 16 19 24 25 24 29 32 32 29 34 35 34 36 35 34 32 26 28 26 29 26 20 20 20 20 17 20 12
3 5 10 6 4 3 4 2 6 6 7 19 8 6 7 5 10 9 13 16 15 12 11 11 12 13 15 19 19 21 23 29 34 31 29 27 32 33 38 36 35 32 27 27 25 25 26 24 21 19 21 22 18 12
5 11 5 7 5 6 4 2 5 5 9 13 9 8 8 5 8 9 10 12 14 14 14 14 13 14 16 18 19 20 19 25 23 21 25 28 26 31 35 36 36 32 29 27 27 25 22 20 20 21 17 15 10 8
7 7 5 7 5 4 5 6 5 6 7 5 9 7 7 9 6 11 16 19 19 21 19 20 22 19 21 22 23 23 25 28 34 34 31 30 34 26 25 31 30 26 24 23 22 22 24 20 15 12 12 13 12 13
8 8 5 6 6 4 6 5 5 5 4 5 7 7 5 6 8 10 15 21 24 21 20 23 22 22 23 24 23 24 26 26 31 35 37 34 31 30 28 30 30 27 26 25 20 19 18 17 16 14 16 15 14 16
5 6 4 5 7 9 6 8 8 6 6 8 9 9 8 6 2 13 16 17 25 27 25 21 25 27 25 29 30 34 36 27 24 34 35 30 26 25 27 28 28 27 26 24 24 21 21 20 18 15 14 15 16 18
Wind_Direction_500mb
287 278 268 255 246 241 236 227 223 221 221 220 218 214 209 205 207 205 198 193 197 213 172 184 183 180 193 175 163 156 144 175 186 183 195 210 209 176 178 179 169 190 196 201 232 258 252 149 135 211 115 123 146 179
282 274 272 254 241 235 226 220 217 216 217 218 215 209 202 201 199 202 197 189 193 100 46 157 160 168 182 184 149 161 132 160 150 185 197 215 221 166 197 154 166 190 201 215 311 158 110 122 98 99 105 153 146 173
288 284 272 251 238 233 224 216 210 208 204 205 200 198 196 191 194 191 183 173 151 119 96 129 128 167 152 168 169 170 190 173 171 171 171 181 204 164 197 196 148 207 156 150 187 173 143 123 106 119 125 136 147 175
302 293 260 236 211 200 201 200 199 198 194 193 189 189 187 188 192 184 176 164 155 111 92 65 116 134 134 147 182 185 148 150 155 167 126 156 189 225 206 174 174 160 176 172 211 228 119 155 155 160 141 132 151 162
328 355 203 174 172 175 175 182 188 189 187 185 184 181 181 183 183 177 175 168 147 130 130 120 112 113 121 128 136 150 146 141 157 124 88 186 75 126 44 343 111 174 174 186 235 181 158 172 150 165 156 152 177 199
54 75 151 155 159 161 163 164 169 173 179 177 173 174 178 173 170 162 145 163 174 137 112 100 90 115 121 129 129 136 149 155 163 155 117 74 54 326 140 215 72 137 75 139 112 124 152 142 158 168 159 153 145 116
76 88 125 145 143 152 150 152 159 163 161 163 164 168 168 171 174 149 164 149 151 141 109 109 99 102 121 119 115 112 118 116 113 78 130 129 136 22 331 262 109 98 118 126 115 118 131 158 150 142 147 145 140 106
91 91 102 116 126 133 134 138 144 148 151 154 151 151 149 146 141 130 137 144 138 118 101 105 109 133 148 125 111 131 118 92 62 110 143 109 117 143 220 87 109 128 114 122 123 90 166 132 128 132 138 141 132 95
94 97 101 110 118 122 128 134 137 142 147 146 138 131 127 131 128 133 138 142 132 104 116 129 150 136 172 135 123 104 100 86 84 220 156 142 127 165 106 127 145 132 151 147 134 126 132 136 136 134 134 111 120 71
110 104 111 113 119 123 128 133 132 127 123 123 127 127 113 129 133 134 131 135 80 60 88 140 120 134 143 139 106 133 169 133 154 217 112 249 74 107 113 84 137 139 144 154 149 159 145 138 135 131 122 101 95 80
102 106 108 113 114 117 118 121 125 128 131 128 114 94 128 130 128 115 95 106 135 109 117 129 141 133 146 122 135 118 159 171 168 137 170 195 151 137 151 124 122 132 125 119 130 146 158 157 147 142 131 114 98 69
95 102 102 109 108 117 123 126 129 130 131 135 127 119 108 118 107 91 76 112 154 129 128 139 137 133 126 122 104 157 110 269 116 115 153 209 121 144 144 136 127 126 125 123 127 130 145 144 140 153 130 132 216 286
94 91 91 104 113 119 121 125 123 109 117 122 117 81 98 33 98 146 145 115 128 125 138 145 127 120 103 83 72 90 136 118 126 179 188 73 143 151 149 142 137 135 133 127 122 122 127 131 136 148 188 236 270 308
113 107 102 110 119 124 121 123 117 117 122 83 51 59 18 65 56 22 71 113 132 137 135 138 132 97 111 84 149 96 53 151 183 195 153 139 152 150 148 152 150 144 145 140 135 136 147 154 158 189 246 271 283 328
111 114 108 102 109 121 129 127 132 120 63 62 36 59 59 71 50 8 95 119 127 135 135 119 92 90 93 112 117 114 138 169 205 182 108 132 144 148 151 157 155 159 166 170 171 171 164 162 152 127 67 346 354 342
116 118 92 112 113 106 117 124 103 73 62 56 50 86 99 99 65 81 103 120 135 135 121 95 110 97 99 127 133 164 164 167 121 109 124 134 143 150 155 162 176 174 171 178 178 181 175 166 155 97 66 34 22 22
124 97 88 116 133 97 94 103 55 56 61 55 47 49 79 57 60 61 72 66 124 108 120 112 76 70 139 133 118 143 44 103 109 111 126 144 149 160 171 177 179 168 171 174 176 173 173 171 155 96 40 38 42 44
111 108 96 113 121 89 71 53 73 62 59 43 68 67 64 68 79 76 73 63 89 91 67 81 123 113 132 132 118 112 108 106 136 132 132 151 164 171 178 182 172 170 175 170 171 172 167 151 112 136 195 67 74 39
115 100 71 123 133 77 56 44 51 77 67 77 75 84 82 77 84 93 85 76 80 87 98 86 77 75 68 51 102 120 137 137 136 140 148 159 165 170 170 170 172 178 177 172 167 163 162 161 162 163 160 164 156 226
107 67 80 114 118 73 66 43 54 72 62 75 64 56 68 83 74 56 65 59 48 61 52 45 45 51 88 90 127 141 148 162 155 143 151 162 170 173 174 171 174 183 167 160 165 180 200 160 176 173 189 196 170 219
93 70 89 97 71 68 76 60 60 82 88 79 121 86 73 68 55 46 35 27 54 25 74 69 100 125 137 127 114 137 151 150 154 174 177 175 178 176 169 177 189 172 173 178 180 181 173 191 189 207 193 152 236 230
78 69 69 66 70 71 64 48 97 92 76 111 84 78 83 76 57 27 13 45 62 54 80 113 129 125 134 141 145 154 157 159 168 173 193 185 175 180 180 192 180 179 188 186 184 186 180 190 204 199 181 237 218 214
80 49 53 46 75 67 56 34 72 58 101 121 116 79 79 67 39 31 70 66 81 120 131 148 151 156 177 168 176 175 167 155 161 185 191 184 185 189 193 193 186 190 187 185 189 190 190 211 206 182 207 177 158 277
40 48 38 45 55 86 82 59 72 78 74 64 91 90 71 68 36 59 86 81 144 117 152 172 173 164 162 155 163 180 163 171 187 187 181 179 181 189 194 188 190 192 190 187 187 193 212 203 208 187 197 193 219 197
55 17 45 60 62 92 90 83 67 78 90 88 96 95 95 98 114 90 136 117 145 165 204 214 194 199 195 178 191 184 182 188 188 184 192 192 189 186 182 188 186 189 192 191 191 202 197 199 204 193 222 193 220 244
66 15 31 56 62 91 115 110 124 124 112 103 87 106 121 133 120 124 125 133 143 183 208 199 191 194 192 210 213 213 192 184 198 198 197 196 198 193 189 185 185 189 202 195 197 194 206 205 200 201 221 233 239 235
66 52 54 54 80 109 101 84 112 112 120 140 154 159 160 162 156 122 130 122 155 162 290 148 155 167 190 198 206 205 201 191 194 201 200 197 197 197 200 199 200 204 195 191 195 198 215 199 203 210 206 228 255 235
73 140 118 109 80 37 102 113 139 148 140 140 148 174 172 187 104 116 170 189 178 162 150 134 151 185 211 213 215 219 206 196 193 198 192 184 189 190 198 198 201 211 219 199 191 192 205 205 204 203 212 226 248 259
118 145 131 127 137 151 191 176 161 90 107 165 165 150 150 96 147 160 177 182 188 188 183 177 185 198 210 215 220 215 209 200 199 198 201 200 201 200 205 204 207 213 217 206 204 199 196 197 200 199 208 227 246 251
160 171 197 166 196 181 110 53 84 161 152 156 127 124 122 125 172 184 191 199 204 207 217 224 235 216 219 215 213 219 212 201 204 216 207 212 226 219 211 205 209 215 216 213 210 212 212 209 208 215 225 229 250 277
158 188 200 192 146 123 136 160 122 121 129 142 180 150 143 184 211 213 212 219 216 217 214 215 235 230 223 220 220 216 208 208 207 210 213 219 221 229 227 211 210 209 207 209 215 207 204 203 200 213 226 238 259 277
178 202 195 183 154 178 140 157 151 170 152 180 184 172 185 184 209 248 246 232 227 224 225 216 232 248 237 234 232 231 229 234 224 214 217 220 225 230 221 207 203 194 196 205 211 200 196 182 193 214 238 257 278 294
186 180 203 175 165 177 172 173 181 180 210 211 209 207 211 229 232 243 256 230 219 216 215 221 229 224 231 231 223 226 234 234 219 212 218 219 225 220 210 202 196 198 202 201 201 205 193 197 210 226 250 276 290 301
Wind_Speed_850mb
87 81 78 80 86 92 92 99 104 102 102 94 87 93 94 91 88 93 57 59 43 14 16 33 38 50 35 42 21 43 24 17 18 13 9 9 8 13 12 23 14 18 14 12 12 9 18 27 17 7 13 11 6 2
69 68 72 70 77 83 88 94 106 109 106 104 103 99 96 92 89 90 60 55 36 19 6 24 25 43 31 44 37 54 14 32 14 10 8 5 4 9 12 12 14 12 8 9 2 2 10 22 22 17 8 15 9 6
65 70 64 65 81 93 96 101 106 109 105 104 104 100 95 96 90 87 71 55 38 30 22 25 27 26 38 42 51 27 22 43 24 14 9 5 6 7 8 9 15 14 19 2 4 11 18 14 15 11 9 12 10 4
62 50 42 56 55 70 79 98 106 107 107 101 102 101 100 95 96 63 83 64 51 22 9 6 15 22 30 25 44 43 43 25 26 24 8 4 4 2 8 7 9 14 21 14 5 8 15 11 15 13 12 10 7 3
36 17 22 51 58 61 70 85 106 113 110 108 106 107 103 92 97 71 77 56 52 16 11 25 34 22 26 29 30 29 38 37 26 10 3 5 7 2 6 5 5 17 14 12 5 19 15 11 23 17 15 11 7 2
45 23 36 59 68 70 78 79 90 108 113 112 106 105 104 97 97 78 26 57 27 72 34 7 22 29 28 28 32 33 36 32 19 14 6 11 4 6 3 5 10 10 13 12 6 17 13 20 19 17 15 13 7 4
69 78 87 67 75 85 85 87 101 116 116 120 113 116 116 95 97 45 20 53 68 49 24 9 8 18 35 35 33 29 24 17 22 7 1 12 8 2 1 3 18 8 14 10 25 23 20 20 19 16 15 10 11 8
80 95 118 131 121 112 113 119 130 134 132 136 131 115 105 91 55 48 72 74 47 27 15 8 10 18 23 31 21 26 22 16 6 7 4 11 9 2 3 19 12 16 21 22 20 8 15 23 20 15 12 10 7 5
71 94 115 127 137 143 152 153 151 149 142 133 127 95 76 57 36 54 61 50 21 13 12 7 15 11 20 26 23 16 9 4 5 2 6 11 7 4 11 18 13 21 16 21 17 17 17 17 17 13 10 7 5 3
73 85 101 113 121 126 132 131 134 136 125 110 95 52 22 33 81 71 44 10 9 10 7 8 25 12 34 25 7 9 4 6 6 6 14 4 8 21 14 8 16 17 20 23 20 16 15 15 13 11 9 8 7 5
70 77 83 96 112 122 126 123 117 108 90 67 31 19 80 70 41 10 8 7 9 5 17 23 39 25 29 11 8 8 5 4 5 6 8 7 8 14 16 19 20 19 20 17 14 16 12 15 17 13 9 6 5 3
75 87 97 107 99 98 99 92 87 58 36 33 65 66 29 12 8 10 4 2 6 8 21 25 39 38 28 14 8 6 5 2 5 9 3 4 9 28 27 25 22 22 23 24 22 22 24 23 18 15 9 6 6 10
66 65 73 71 75 74 68 58 46 73 82 74 37 14 5 8 7 9 11 8 10 12 42 44 21 14 10 12 8 4 5 5 27 4 7 6 33 31 30 29 25 22 22 23 24 23 21 19 17 13 11 5 5 10
56 55 59 62 56 52 49 73 57 56 49 18 11 11 8 6 10 8 11 13 19 50 55 45 22 9 9 7 6 6 6 8 8 8 6 16 34 34 31 27 28 27 28 28 25 21 16 10 9 6 3 3 4 6
60 56 52 55 57 53 56 50 47 37 17 15 13 10 9 5 8 8 19 42 54 57 46 30 16 13 6 7 4 9 5 7 9 4 12 39 38 38 35 33 32 30 37 32 24 15 10 7 5 3 1 2 2 4
57 58 51 39 42 39 34 26 21 22 14 13 16 12 14 15 7 20 39 43 42 43 25 13 7 7 5 10 6 6 12 7 6 10 35 39 39 36 36 35 38 29 31 25 19 15 11 8 3 2 2 2 3 5
55 48 37 31 32 23 19 26 18 18 13 11 11 25 28 19 20 22 24 18 16 14 4 7 7 5 8 6 6 4 5 12 29 32 30 31 37 43 43 40 34 32 26 20 18 15 13 8 5 6 7 6 6 12
52 36 33 32 28 26 45 24 16 16 18 24 11 21 29 29 25 24 26 22 13 10 9 6 10 5 5 6 8 9 16 34 32 31 29 33 35 38 38 35 33 29 24 22 17 15 12 10 10 8 4 6 9 13
41 31 27 26 25 15 15 18 16 13 17 16 23 28 28 25 29 22 20 15 17 13 11 7 5 7 7 11 23 30 32 34 33 29 30 29 32 33 32 32 30 26 24 22 19 12 11 15 15 9 9 3 5 4
33 30 28 23 24 14 13 14 15 15 11 10 14 18 12 11 12 17 23 22 19 9 10 7 7 7 11 20 22 30 29 38 39 37 31 30 32 33 32 33 29 25 23 21 20 21 11 10 11 11 12 12 8 3
25 31 33 36 39 25 14 10 14 11 13 11 7 7 9 15 12 15 18 20 16 10 8 10 15 22 25 26 23 27 30 27 23 16 34 40 37 33 32 28 25 26 26 23 19 19 18 15 13 12 3 5 8 9
21 27 31 28 17 13 15 18 15 11 10 12 7 10 10 7 7 8 8 14 9 8 8 11 15 18 16 18 22 22 24 22 19 17 20 27 38 34 34 33 28 28 23 22 21 19 20 18 19 14 10 11 4 4
17 23 16 15 13 12 7 11 9 7 6 7 8 6 5 6 5 6 6 8 7 6 11 14 16 16 11 12 14 16 23 21 20 24 25 26 30 29 31 29 29 28 26 24 23 22 24 26 21 13 12 8 4 6
16 12 13 11 14 8 7 7 8 8 8 4 5 5 5 5 4 3 4 6 3 6 5 9 10 10 7 10 8 14 22 22 23 21 24 29 32 31 30 30 30 27 26 28 25 26 26 22 16 17 12 9 8 9
8 14 9 11 7 7 6 5 4 6 6 4 5 5 4 2 2 3 3 8 9 8 9 7 12 12 6 9 14 16 25 24 23 25 28 28 30 29 30 29 28 27 32 31 30 26 19 20 18 16 13 12 14 13
10 10 8 5 3 4 4 6 5 8 6 5 5 6 3 2 3 4 4 8 6 5 10 10 9 11 11 16 19 17 27 25 23 24 26 30 31 31 34 35 34 30 31 28 26 23 23 22 19 21 20 20 21 16
5 6 6 5 5 10 9 11 12 6 5 6 8 8 5 6 5 6 11 9 8 4 2 6 10 11 13 18 18 19 21 28 25 23 28 29 27 27 31 35 33 29 34 34 29 25 22 20 20 19 16 16 18 13
5 3 4 4 6 5 5 5 5 5 5 12 17 7 11 7 4 7 9 15 11 9 7 11 15 15 16 19 24 25 24 29 32 32 29 34 35 34 36 35 34 32 26 28 26 29 26 20 20 20 20 17 20 12
3 5 10 6 4 3 4 2 6 6 7 19 8 6 7 5 10 9 13 16 15 12 11 11 12 13 15 19 19 21 23 29 34 31 29 27 32 33 38 36 35 32 27 27 25 25 26 24 21 19 21 22 18 12
5 11 5 7 5 6 4 2 5 5 9 13 9 8 8 5 8 9 10 12 14 14 14 14 13 14 16 18 19 20 19 25 23 21 25 28 26 31 35 36 36 32 29 27 27 25 22 20 20 21 17 15 10 8
7 7 5 7 5 4 5 6 5 6 7 5 9 7 7 9 6 11 16 19 19 21 19 20 22 19 21 22 23 23 25 28 34 34 31 30 34 26 25 31 30 26 24 23 22 22 24 20 15 12 12 13 12 13
8 8 5 6 6 4 6 5 5 5 4 5 7 7 5 6 8 10 15 21 24 21 20 23 22 22 23 24 23 24 26 26 31 35 37 34 31 30 28 30 30 27 26 25 20 19 18 17 16 14 16 15 14 16
5 6 4 5 7 9 6 8 8 6 6 8 9 9 8 6 2 13 16 17 25 27 25 21 25 27 25 29 30 34 36 27 24 34 35 30 26 25 27 28 28 27 26 24 24 21 21 20 18 15 14 15 16 18
Wind_Direction_850mb
287 278 268 255 246 241 236 227 223 221 221 220 218 214 209 205 207 205 198 193 197 213 172 184 183 180 193 175 163 156 144 175 186 183 195 210 209 176 178 179 169 190 196 201 232 258 252 149 135 211 115 123 146 179
282 274 272 254 241 235 226 220 217 216 217 218 215 209 202 201 199 202 197 189 193 100 46 157 160 168 182 184 149 161 132 160 150 185 197 215 221 166 197 154 166 190 201 215 311 158 110 122 98 99 105 153 146 173
288 284 272 251 238 233 224 216 210 208 204 205 200 198 196 191 194 191 183 173 151 119 96 129 128 167 152 168 169 170 190 173 171 171 171 181 204 164 197 196 148 207 156 150 187 173 143 123 106 119 125 136 147 175
302 293 260 236 211 200 201 200 199 198 194 193 189 189 187 188 192 184 176 164 155 111 92 65 116 134 134 147 182 185 148 150 155 167 126 156 189 225 206 174 174 160 176 172 211 228 119 155 155 160 141 132 151 162
328 355 203 174 172 175 175 182 188 189 187 185 184 181 181 183 183 177 175 168 147 130 130 120 112 113 121 128 136 150 146 141 157 124 88 186 75 126 44 343 111 174 174 186 235 181 158 172 150 165 156 152 177 199
54 75 151 155 159 161 163 164 169 173 179 177 173 174 178 173 170 162 145 163 174 137 112 100 90 115 121 129 129 136 149 155 163 155 117 74 54 326 140 215 72 137 75 139 112 124 152 142 158 168 159 153 145 116
76 88 125 145 143 152 150 152 159 163 161 163 164 168 168 171 174 149 164 149 151 141 109 109 99 102 121 119 115 112 118 116 113 78 130 129 136 22 331 262 109 98 118 126 115 118 131 158 150 142 147 145 140 106
91 91 102 116 126 133 134 138 144 148 151 154 151 151 149 146 141 130 137 144 138 118 101 105 109 133 148 125 111 131 118 92 62 110 143 109 117 143 220 87 109 128 114 122 123 90 166 132 128 132 138 141 132 95
94 97 101 110 118 122 128 134 137 142 147 146 138 131 127 131 128 133 138 142 132 104 116 129 150 136 172 135 123 104 100 86 84 220 156 142 127 165 106 127 145 132 151 147 134 126 132 136 136 134 134 111 120 71
110 104 111 113 119 123 128 133 132 127 123 123 127 127 113 129 133 134 131 135 80 60 88 140 120 134 143 139 106 133 169 133 154 217 112 249 74 107 113 84 137 139 144 154 149 159 145 138 135 131 122 101 95 80
102 106 108 113 114 117 118 121 125 128 131 128 114 94 128 130 128 115 95 106 135 109 117 129 141 133 146 122 135 118 159 171 168 137 170 195 151 137 151 124 122 132 125 119 130 146 158 157 147 142 131 114 98 69
95 102 102 109 108 117 123 126 129 130 131 135 127 119 108 118 107 91 76 112 154 129 128 139 137 133 126 122 104 157 110 269 116 115 153 209 121 144 144 136 127 126 125 123 127 130 145 144 140 153 130 132 216 286
94 91 91 104 113 119 121 125 123 109 117 122 117 81 98 33 98 146 145 115 128 125 138 145 127 120 103 83 72 90 136 118 126 179 188 73 143 151 149 142 137 135 133 127 122 122 127 131 136 148 188 236 270 308
113 107 102 110 119 124 121 123 117 117 122 83 51 59 18 65 56 22 71 113 132 137 135 138 132 97 111 84 149 96 53 151 183 195 153 139 152 150 148 152 150 144 145 140 135 136 147 154 158 189 246 271 283 328
111 114 108 102 109 121 129 127 132 120 63 62 36 59 59 71 50 8 95 119 127 135 135 119 92 90 93 112 117 114 138 169 205 182 108 132 144 148 151 157 155 159 166 170 171 171 164 162 152 127 67 346 354 342
116 118 92 112 113 106 117 124 103 73 62 56 50 86 99 99 65 81 103 120 135 135 121 95 110 97 99 127 133 164 164 167 121 109 124 134 143 150 155 162 176 174 171 178 178 181 175 166 155 97 66 34 22 22
124 97 88 116 133 97 94 103 55 56 61 55 47 49 79 57 60 61 72 66 124 108 120 112 76 70 139 133 118 143 44 103 109 111 126 144 149 160 171 177 179 168 171 174 176 173 173 171 155 96 40 38 42 44
111 108 96 113 121 89 71 53 73 62 59 43 68 67 64 68 79 76 73 63 89 91 67 81 123 113 132 132 118 112 108 106 136 132 132 151 164 171 178 182 172 170 175 170 171 172 167 151 112 136 195 67 74 39
115 100 71 123 133 77 56 44 51 77 67 77 75 84 82 77 84 93 85 76 80 87 98 86 77 75 68 51 102 120 137 137 136 140 148 159 165 170 170 170 172 178 177 172 167 163 162 161 162 163 160 164 156 226
107 67 80 114 118 73 66 43 54 72 62 75 64 56 68 83 74 56 65 59 48 61 52 45 45 51 88 90 127 141 148 162 155 143 151 162 170 173 174 171 174 183 167 160 165 180 200 160 176 173 189 196 170 219
93 70 89 97 71 68 76 60 60 82 88 79 121 86 73 68 55 46 35 27 54 25 74 69 100 125 137 127 114 137 151 150 154 174 177 175 178 176 169 177 189 172 173 178 180 181 173 191 189 207 193 152 236 230
78 69 69 66 70 71 64 48 97 92 76 111 84 78 83 76 57 27 13 45 62 54 80 113 129 125 134 141 145 154 157 159 168 173 193 185 175 180 180 192 180 179 188 186 184 186 180 190 204 199 181 237 218 214
80 49 53 46 75 67 56 34 72 58 101 121 116 79 79 67 39 31 70 66 81 120 131 148 151 156 177 168 176 175 167 155 161 185 191 184 185 189 193 193 186 190 187 185 189 190 190 211 206 182 207 177 158 277
40 48 38 45 55 86 82 59 72 78 74 64 91 90 71 68 36 59 86 81 144 117 152 172 173 164 162 155 163 180 163 171 187 187 181 179 181 189 194 188 190 192 190 187 187 193 212 203 208 187 197 193 219 197
55 17 45 60 62 92 90 83 67 78 90 88 96 95 95 98 114 90 136 117 145 165 204 214 194 199 195 178 191 184 182 188 188 184 192 192 189 186 182 188 186 189 192 191 191 202 197 199 204 193 222 193 220 244
66 15 31 56 62 91 115 110 124 124 112 103 87 106 121 133 120 124 125 133 143 183 208 199 191 194 192 210 213 213 192 184 198 198 197 196 198 193 189 185 185 189 202 195 197 194 206 205 200 201 221 233 239 235
66 52 54 54 80 109 101 84 112 112 120 140 154 159 160 162 156 122 130 122 155 162 290 148 155 167 190 198 206 205 201 191 194 201 200 197 197 197 200 199 200 204 195 191 195 198 215 199 203 210 206 228 255 235
73 140 118 109 80 37 102 113 139 148 140 140 148 174 172 187 104 116 170 189 178 162 150 134 151 185 211 213 215 219 206 196 193 198 192 184 189 190 198 198 201 211 219 199 191 192 205 205 204 203 212 226 248 259
118 145 131 127 137 151 191 176 161 90 107 165 165 150 150 96 147 160 177 182 188 188 183 177 185 198 210 215 220 215 209 200 199 198 201 200 201 200 205 204 207 213 217 206 204 199 196 197 200 199 208 227 246 251
160 171 197 166 196 181 110 53 84 161 152 156 127 124 122 125 172 184 191 199 204 207 217 224 235 216 219 215 213 219 212 201 204 216 207 212 226 219 211 205 209 215 216 213 210 212 212 209 208 215 225 229 250 277
158 188 200 192 146 123 136 160 122 121 129 142 180 150 143 184 211 213 212 219 216 217 214 215 235 230 223 220 220 216 208 208 207 210 213 219 221 229 227 211 210 209 207 209 215 207 204 203 200 213 226 238 259 277
178 202 195 183 154 178 140 157 151 170 152 180 184 172 185 184 209 248 246 232 227 224 225 216 232 248 237 234 232 231 229 234 224 214 217 220 225 230 221 207 203 194 196 205 211 200 196 182 193 214 238 257 278 294
186 180 203 175 165 177 172 173 181 180 210 211 209 207 211 229 232 243 256 230 219 216 215 221 229 224 231 231 223 226 234 234 219 212 218 219 225 220 210 202 196 198 202 201 201 205 193 197 210 226 250 276 290 301